Miscellaneous Local Product
Issued by NWS Hastings, NE

Home | Current Version | Previous Version | Graphics & Text | Print | Product List | Glossary On
Versions: 1 2 3 4 5 6 7 8 9 10 11 12 13 14 15 16 17 18 19 20 21 22 23 24 25 26 27 28 29 30 31 32 33 34 35 36 37 38 39 40 41 42 43 44 45 46 47 48 49 50
000
AXUS43 KGID 302102
MISGRI

GID CWA HOURLY WEATHER ROUNDUP
NATIONAL WEATHER SERVICE HASTINGS NE
400 PM CDT SUN AUG 30 2015

NOTE: "FAIR" INDICATES FEW OR NO CLOUDS BELOW 12,000 FEET WITH NO
SIGNIFICANT WEATHER AND/OR OBSTRUCTIONS TO VISIBILITY.

...SOUTH CENTRAL NEBRASKA...

CITY           SKY/WX    TMP DP  RH WIND       PRES   REMARKS
GRAND ISLAND   SUNNY     79  63  57 SE15      29.98F
HASTINGS       SUNNY     79  63  57 S12       29.98F
KEARNEY        SUNNY     84  63  48 SE15      29.97F
ORD            SUNNY     88  60  38 S13G22    29.92F
YORK           SUNNY     75  66  73 S10       29.99F
AURORA         SUNNY     77  65  66 S12       29.98F
LEXINGTON      SUNNY     89  58  35 S14       29.97F
HOLDREGE       SUNNY     84  56  39 S14       29.99F
HEBRON         SUNNY     77  62  59 S8        30.01F

...NEBRASKA PANHANDLE...

CITY           SKY/WX    TMP DP  RH WIND       PRES   REMARKS
CHADRON        SUNNY    102  40  12 S10       29.79F HX  97
ALLIANCE       SUNNY     97  40  14 S9        29.89F HX  92
SCOTTSBLUFF    SUNNY     97  45  16 E10       29.89F HX  93
SIDNEY         SUNNY     97  35  11 S14G23    29.95F HX  92

...WESTERN AND NORTH CENTRAL NEBRASKA...

CITY           SKY/WX    TMP DP  RH WIND       PRES   REMARKS
VALENTINE      CLOUDY    96  43  16 S25G40    29.83F HX  92
AINSWORTH      SUNNY     92  44  18 S24G30    29.88F
ONEILL         SUNNY     87  64  47 S17       29.91F
BROKEN BOW     SUNNY     89  56  32 S17G26    29.95F
IMPERIAL       SUNNY     95  37  13 S18G26    29.95F HX  90
NORTH PLATTE   SUNNY     92  43  18 S18G25    29.92F
MCCOOK         SUNNY     97  39  13 S17G24    29.94F HX  92

...EASTERN NEBRASKA...

CITY           SKY/WX    TMP DP  RH WIND       PRES   REMARKS
NORFOLK        SUNNY     77  65  66 S16       29.96F
TEKAMAH        PTSUNNY   74  66  76 S9        29.99F
COLUMBUS       SUNNY     75  64  69 SE9       29.98F
ALBION         SUNNY     77  65  65 S10       29.97F
OMAHA EPPLEY   PTSUNNY   75  65  70 S12       30.00F
OFFUTT AFB     PTSUNNY   76  66  72 S10       30.00F
MILLARD        CLOUDY    74  66  75 S9        30.01F
LINCOLN        SUNNY     78  66  66 SE13      30.01F
NEBRASKA CITY  PTSUNNY   76  63  64 SW6       30.02F
BEATRICE       MOSUNNY   74  65  72 SE9       30.02F
FALLS CITY     PTSUNNY   80  69  69 VRB5      30.00F

...NORTHERN KANSAS...

CITY           SKY/WX    TMP DP  RH WIND       PRES   REMARKS
GOODLAND       SUNNY     91  39  16 S20       30.00F HAZE
HILL CITY      SUNNY     95  48  20 S14G23    29.96F HX  91
NORTON         CLEAR     91  43  18 SE12G18   29.95F
PHILLIPSBURG   SUNNY     90  57  33 SE13      29.98F
SMITH CENTER   SUNNY     81  61  50 SE14G21   29.99F
HAYS           SUNNY     90  54  29 SE14      29.97F
RUSSELL        SUNNY     87  58  37 SE10      29.97F
CONCORDIA      SUNNY     78  66  66 SE10      30.00F
SALINA         SUNNY     82  65  56 E9        29.99F
TOPEKA         SUNNY     83  68  60 CALM      29.99F



USA.gov is the U.S. government's official web portal to all federal, state and local government web resources and services.